Year,Month,Day,Hour,Minute,Value (Times are PST for temperature in C)
2011,03,23,08,10,5.30
2011,03,23,08,11,5.30
2011,03,23,08,12,5.30
2011,03,23,08,13,5.30
2011,03,23,08,14,5.30
2011,03,23,08,15,5.40
2011,03,23,08,16,5.40
2011,03,23,08,17,5.40
2011,03,23,08,18,5.40
2011,03,23,08,19,5.40
2011,03,23,08,20,5.50
2011,03,23,08,21,5.50
2011,03,23,08,22,5.50
2011,03,23,08,23,5.50
2011,03,23,08,24,5.50
2011,03,23,08,25,5.50
2011,03,23,08,26,5.60
2011,03,23,08,27,5.60
2011,03,23,08,28,5.60
2011,03,23,08,29,5.70
2011,03,23,08,30,5.70
2011,03,23,08,31,5.70
2011,03,23,08,32,5.70
2011,03,23,08,33,5.70
2011,03,23,08,34,5.70
2011,03,23,08,35,5.80
2011,03,23,08,36,5.80
2011,03,23,08,37,5.90
2011,03,23,08,38,5.90
2011,03,23,08,39,5.90
2011,03,23,08,40,6.00
2011,03,23,08,41,6.00
2011,03,23,08,42,6.00
2011,03,23,08,43,6.10
2011,03,23,08,44,6.20
2011,03,23,08,45,6.20
2011,03,23,08,46,6.30
2011,03,23,08,47,6.30
2011,03,23,08,48,6.40
2011,03,23,08,49,6.40
2011,03,23,08,50,6.40
2011,03,23,08,51,6.50
2011,03,23,08,52,6.60
2011,03,23,08,53,6.50
2011,03,23,08,54,6.40
2011,03,23,08,55,6.40
2011,03,23,08,56,6.40
2011,03,23,08,57,6.40
2011,03,23,08,58,6.40
2011,03,23,08,59,6.30
2011,03,23,09,00,6.30
2011,03,23,09,01,6.30
2011,03,23,09,02,6.30
2011,03,23,09,03,6.30
2011,03,23,09,04,6.30
2011,03,23,09,05,6.30
2011,03,23,09,06,6.30
2011,03,23,09,07,6.20
2011,03,23,09,08,6.20
2011,03,23,09,09,6.20
2011,03,23,09,10,6.20
2011,03,23,09,11,6.20
2011,03,23,09,12,6.30
2011,03,23,09,13,6.30
2011,03,23,09,14,6.30
2011,03,23,09,15,6.30
2011,03,23,09,16,6.30
2011,03,23,09,17,6.40
2011,03,23,09,18,6.40
2011,03,23,09,19,6.40
2011,03,23,09,20,6.40
2011,03,23,09,21,6.40
2011,03,23,09,22,6.50
2011,03,23,09,23,6.60
2011,03,23,09,24,6.60
2011,03,23,09,25,6.60
2011,03,23,09,26,6.60
2011,03,23,09,27,6.60
2011,03,23,09,28,6.60
2011,03,23,09,29,6.60
2011,03,23,09,30,6.60
2011,03,23,09,31,6.50
2011,03,23,09,32,6.50
2011,03,23,09,33,6.60
2011,03,23,09,34,6.60
2011,03,23,09,35,6.60
2011,03,23,09,36,6.60
2011,03,23,09,37,6.60
2011,03,23,09,38,6.60
2011,03,23,09,39,6.60
2011,03,23,09,40,6.60
2011,03,23,09,41,6.50
2011,03,23,09,42,6.40
2011,03,23,09,43,6.40
2011,03,23,09,44,6.30
2011,03,23,09,45,6.30
2011,03,23,09,46,6.30
2011,03,23,09,47,6.30
2011,03,23,09,48,6.30
2011,03,23,09,49,6.30
2011,03,23,09,50,6.40
2011,03,23,09,51,6.40
2011,03,23,09,52,6.40
2011,03,23,09,53,6.40
2011,03,23,09,54,6.40
2011,03,23,09,55,6.50
2011,03,23,09,56,6.60
2011,03,23,09,57,6.60
2011,03,23,09,58,6.60
2011,03,23,09,59,6.60
2011,03,23,10,00,6.60
2011,03,23,10,01,6.60
2011,03,23,10,02,6.60
2011,03,23,10,03,6.60
2011,03,23,10,04,6.50
2011,03,23,10,05,6.50
2011,03,23,10,06,6.50
2011,03,23,10,07,6.40
2011,03,23,10,08,6.40
2011,03,23,10,09,6.40
2011,03,23,10,10,6.40
2011,03,23,10,11,6.40
2011,03,23,10,12,6.40
2011,03,23,10,13,6.40
2011,03,23,10,14,6.40
2011,03,23,10,15,6.40
2011,03,23,10,16,6.50
2011,03,23,10,17,6.60
2011,03,23,10,18,6.60
2011,03,23,10,19,6.70
2011,03,23,10,20,6.70
2011,03,23,10,21,6.60
2011,03,23,10,22,6.70
2011,03,23,10,23,6.70
2011,03,23,10,24,6.80
2011,03,23,10,25,6.80
2011,03,23,10,26,6.80
2011,03,23,10,27,6.90
2011,03,23,10,28,6.90
2011,03,23,10,29,6.90
2011,03,23,10,30,6.90
2011,03,23,10,31,6.90
2011,03,23,10,32,6.90
2011,03,23,10,33,6.80
2011,03,23,10,34,6.80
2011,03,23,10,35,6.80
2011,03,23,10,36,6.90
2011,03,23,10,37,6.80
2011,03,23,10,38,6.80
2011,03,23,10,39,6.80
2011,03,23,10,40,6.80
2011,03,23,10,41,6.80
2011,03,23,10,42,6.80
2011,03,23,10,43,6.80
2011,03,23,10,44,6.90
2011,03,23,10,45,7.00
2011,03,23,10,46,7.00
2011,03,23,10,47,7.00
2011,03,23,10,48,7.00
2011,03,23,10,49,7.10
2011,03,23,10,50,7.10
2011,03,23,10,51,7.20
2011,03,23,10,52,7.20
2011,03,23,10,53,7.20
2011,03,23,10,54,7.30
2011,03,23,10,55,7.30
2011,03,23,10,56,7.30
2011,03,23,10,57,7.40
2011,03,23,10,58,7.50
2011,03,23,10,59,7.60
2011,03,23,11,00,7.60
2011,03,23,11,01,7.60
2011,03,23,11,02,7.60
2011,03,23,11,03,7.60
2011,03,23,11,04,7.60
2011,03,23,11,05,7.60
2011,03,23,11,06,7.60
2011,03,23,11,07,7.50
2011,03,23,11,08,7.60
2011,03,23,11,09,7.60
2011,03,23,11,10,7.60
2011,03,23,11,11,7.60
2011,03,23,11,12,7.60
2011,03,23,11,13,7.70
2011,03,23,11,14,7.70
2011,03,23,11,15,7.60
2011,03,23,11,16,7.60
2011,03,23,11,17,7.60
2011,03,23,11,18,7.60
2011,03,23,11,19,7.60
2011,03,23,11,20,7.70
2011,03,23,11,21,7.70
2011,03,23,11,22,7.80
2011,03,23,11,23,7.80
2011,03,23,11,24,7.90
2011,03,23,11,25,7.80
2011,03,23,11,26,7.90
2011,03,23,11,27,7.90
2011,03,23,11,28,7.90
2011,03,23,11,29,7.90
2011,03,23,11,30,7.90
2011,03,23,11,31,7.90
2011,03,23,11,32,8.00
2011,03,23,11,33,8.00
2011,03,23,11,34,8.10
2011,03,23,11,35,8.20
2011,03,23,11,36,8.20
2011,03,23,11,37,8.20
2011,03,23,11,38,8.20
2011,03,23,11,39,8.20
2011,03,23,11,40,8.20
2011,03,23,11,41,8.30
2011,03,23,11,42,8.30
2011,03,23,11,43,8.30
2011,03,23,11,44,8.40
2011,03,23,11,45,8.40
2011,03,23,11,46,8.30
2011,03,23,11,47,8.20
2011,03,23,11,48,8.20
2011,03,23,11,49,8.20
2011,03,23,11,50,8.20
2011,03,23,11,51,8.20
2011,03,23,11,52,8.20
2011,03,23,11,53,8.20
2011,03,23,11,54,8.10
2011,03,23,11,55,8.10
2011,03,23,11,56,8.20
2011,03,23,11,57,8.10
2011,03,23,11,58,8.10
2011,03,23,11,59,8.10
2011,03,23,12,00,8.20
2011,03,23,12,01,8.20
2011,03,23,12,02,8.20
2011,03,23,12,03,8.20
2011,03,23,12,04,8.20
2011,03,23,12,05,8.10
2011,03,23,12,06,8.10
2011,03,23,12,07,8.10
2011,03,23,12,08,8.10
2011,03,23,12,09,8.20
2011,03,23,12,10,8.20
2011,03,23,12,11,8.20
2011,03,23,12,12,8.30
2011,03,23,12,13,8.30
2011,03,23,12,14,8.30
2011,03,23,12,15,8.30
2011,03,23,12,16,8.30
2011,03,23,12,17,8.30
2011,03,23,12,18,8.40
2011,03,23,12,19,8.40
2011,03,23,12,20,8.40
2011,03,23,12,21,8.50
2011,03,23,12,22,8.50
2011,03,23,12,23,8.50
2011,03,23,12,24,8.60
2011,03,23,12,25,8.60
2011,03,23,12,26,8.60
2011,03,23,12,27,8.60
2011,03,23,12,28,8.60
2011,03,23,12,29,8.60
2011,03,23,12,30,8.70
2011,03,23,12,31,8.70
2011,03,23,12,32,8.70
2011,03,23,12,33,8.80
2011,03,23,12,34,8.80
2011,03,23,12,35,8.90
2011,03,23,12,36,8.90
2011,03,23,12,37,9.00
2011,03,23,12,38,9.00
2011,03,23,12,39,9.00
2011,03,23,12,40,9.00
2011,03,23,12,41,9.10
2011,03,23,12,42,9.00
2011,03,23,12,43,9.00
2011,03,23,12,44,9.00
2011,03,23,12,45,9.00
2011,03,23,12,46,9.10
2011,03,23,12,47,9.20
2011,03,23,12,48,9.20
2011,03,23,12,49,9.20
2011,03,23,12,50,9.30
2011,03,23,12,51,9.30
2011,03,23,12,52,9.30
2011,03,23,12,53,9.40
2011,03,23,12,54,9.40
2011,03,23,12,55,9.30
2011,03,23,12,56,9.30
2011,03,23,12,57,9.40
2011,03,23,12,58,9.40
2011,03,23,12,59,9.50
2011,03,23,13,00,9.50
2011,03,23,13,01,9.50
2011,03,23,13,02,9.60
2011,03,23,13,03,9.50
2011,03,23,13,04,9.50
2011,03,23,13,05,9.50
2011,03,23,13,06,9.50
2011,03,23,13,07,9.50
2011,03,23,13,08,9.50
2011,03,23,13,09,9.40
2011,03,23,13,10,9.40
2011,03,23,13,11,9.40
2011,03,23,13,12,9.30
2011,03,23,13,13,9.20
2011,03,23,13,14,9.20
2011,03,23,13,15,9.20
2011,03,23,13,16,9.20
2011,03,23,13,17,9.20
2011,03,23,13,18,9.20
2011,03,23,13,19,9.20
2011,03,23,13,20,9.20
2011,03,23,13,21,9.20
2011,03,23,13,22,9.20
2011,03,23,13,23,9.30
2011,03,23,13,24,9.40
2011,03,23,13,25,9.40
2011,03,23,13,26,9.40
2011,03,23,13,27,9.50
2011,03,23,13,28,9.50
2011,03,23,13,29,9.50
2011,03,23,13,30,9.50
2011,03,23,13,31,9.50
2011,03,23,13,32,9.50
2011,03,23,13,33,9.60
2011,03,23,13,34,9.60
2011,03,23,13,35,9.70
2011,03,23,13,36,9.80
2011,03,23,13,37,9.90
2011,03,23,13,38,9.90
2011,03,23,13,39,9.90
2011,03,23,13,40,9.90
2011,03,23,13,41,9.90
2011,03,23,13,42,9.90
2011,03,23,13,43,9.90
2011,03,23,13,44,9.90
2011,03,23,13,45,9.90
2011,03,23,13,46,9.90
2011,03,23,13,47,9.90
2011,03,23,13,48,9.90
2011,03,23,13,49,10.00
2011,03,23,13,50,10.10
2011,03,23,13,51,10.10
2011,03,23,13,52,10.10
2011,03,23,13,53,10.10
2011,03,23,13,54,10.20
2011,03,23,13,55,10.20
2011,03,23,13,56,10.20
2011,03,23,13,57,10.20
2011,03,23,13,58,10.20
2011,03,23,13,59,10.20
2011,03,23,14,00,10.20
2011,03,23,14,01,10.10
2011,03,23,14,02,10.10
2011,03,23,14,03,10.10
2011,03,23,14,04,10.10
2011,03,23,14,05,10.10
2011,03,23,14,06,10.10
2011,03,23,14,07,10.20
2011,03,23,14,08,10.20
2011,03,23,14,09,10.20
2011,03,23,14,10,10.20
2011,03,23,14,11,10.10
2011,03,23,14,12,10.10
2011,03,23,14,13,10.10
2011,03,23,14,14,10.10
2011,03,23,14,15,10.20
2011,03,23,14,16,10.20
2011,03,23,14,17,10.20
2011,03,23,14,18,10.20
2011,03,23,14,19,10.20
2011,03,23,14,20,10.20
2011,03,23,14,21,10.20
2011,03,23,14,22,10.20
2011,03,23,14,23,10.20
2011,03,23,14,24,10.20
2011,03,23,14,25,10.20
2011,03,23,14,26,10.20
2011,03,23,14,27,10.30
2011,03,23,14,28,10.30
2011,03,23,14,29,10.30
2011,03,23,14,30,10.40
2011,03,23,14,31,10.50
2011,03,23,14,32,10.60
2011,03,23,14,33,10.60
2011,03,23,14,34,10.60
2011,03,23,14,35,10.60
2011,03,23,14,36,10.60
2011,03,23,14,37,10.60
2011,03,23,14,38,10.60
2011,03,23,14,39,10.60
2011,03,23,14,40,10.60
2011,03,23,14,41,10.60
2011,03,23,14,42,10.60
2011,03,23,14,43,10.60
2011,03,23,14,44,10.60
2011,03,23,14,45,10.60
2011,03,23,14,46,10.70
2011,03,23,14,47,10.80
2011,03,23,14,48,10.80
2011,03,23,14,49,10.80
2011,03,23,14,50,10.80
2011,03,23,14,51,10.80
2011,03,23,14,52,10.80
2011,03,23,14,53,10.70
2011,03,23,14,54,10.70
2011,03,23,14,55,10.60
2011,03,23,14,56,10.60
2011,03,23,14,57,10.60
2011,03,23,14,58,10.60
2011,03,23,14,59,10.60
2011,03,23,15,00,10.60
2011,03,23,15,01,10.70
2011,03,23,15,02,10.80
2011,03,23,15,03,10.80
2011,03,23,15,04,10.90
2011,03,23,15,05,10.90
2011,03,23,15,06,10.90
2011,03,23,15,07,10.90
2011,03,23,15,08,10.90
2011,03,23,15,09,10.90
2011,03,23,15,10,10.90
2011,03,23,15,11,10.90
2011,03,23,15,12,11.00
2011,03,23,15,13,11.10
2011,03,23,15,14,11.10
2011,03,23,15,15,11.10
2011,03,23,15,16,11.10
2011,03,23,15,17,11.10
2011,03,23,15,18,11.10
2011,03,23,15,19,11.10
2011,03,23,15,20,10.90
2011,03,23,15,21,10.90
2011,03,23,15,22,11.00
2011,03,23,15,23,11.10
2011,03,23,15,24,11.10
2011,03,23,15,25,11.10
2011,03,23,15,26,11.10
2011,03,23,15,27,11.10
2011,03,23,15,28,11.20
2011,03,23,15,29,11.20
2011,03,23,15,30,11.30
2011,03,23,15,31,11.30
2011,03,23,15,32,11.30
2011,03,23,15,33,11.20
2011,03,23,15,34,11.30
2011,03,23,15,35,11.20
2011,03,23,15,36,11.20
2011,03,23,15,37,11.20
2011,03,23,15,38,11.10
2011,03,23,15,39,11.10
2011,03,23,15,40,11.20
2011,03,23,15,41,11.20
2011,03,23,15,42,11.20
2011,03,23,15,43,11.30
2011,03,23,15,44,11.30
2011,03,23,15,45,11.30
2011,03,23,15,46,11.30
2011,03,23,15,47,11.40
2011,03,23,15,48,11.30
2011,03,23,15,49,11.30
2011,03,23,15,50,11.30
2011,03,23,15,51,11.30
2011,03,23,15,52,11.30
2011,03,23,15,53,11.40
2011,03,23,15,54,11.40
2011,03,23,15,55,11.30
2011,03,23,15,56,11.30
2011,03,23,15,57,11.40
2011,03,23,15,58,11.30
2011,03,23,15,59,11.30
2011,03,23,16,00,11.30
2011,03,23,16,01,11.30
2011,03,23,16,02,11.30
2011,03,23,16,03,11.30
2011,03,23,16,04,11.30
2011,03,23,16,05,11.30
2011,03,23,16,06,11.30
2011,03,23,16,07,11.20
2011,03,23,16,08,11.20
2011,03,23,16,09,11.20
2011,03,23,16,10,11.20
2011,03,23,16,11,11.20
2011,03,23,16,12,11.20
2011,03,23,16,13,11.10
2011,03,23,16,14,11.10
2011,03,23,16,15,11.10
2011,03,23,16,16,11.10
2011,03,23,16,17,11.10
2011,03,23,16,18,11.10
2011,03,23,16,19,11.20
2011,03,23,16,20,11.20
2011,03,23,16,21,11.20
2011,03,23,16,22,11.20
2011,03,23,16,23,11.20
2011,03,23,16,24,11.10
2011,03,23,16,25,11.10
2011,03,23,16,26,11.20
2011,03,23,16,27,11.20
2011,03,23,16,28,11.20
2011,03,23,16,29,11.20
2011,03,23,16,30,11.30
2011,03,23,16,31,11.30
2011,03,23,16,32,11.30
2011,03,23,16,33,11.20
2011,03,23,16,34,11.20
2011,03,23,16,35,11.20
2011,03,23,16,36,11.10
2011,03,23,16,37,11.10
2011,03,23,16,38,11.10
2011,03,23,16,39,11.10
2011,03,23,16,40,11.10
2011,03,23,16,41,11.20
2011,03,23,16,42,11.20
2011,03,23,16,43,11.10
2011,03,23,16,44,11.10
2011,03,23,16,45,11.10
2011,03,23,16,46,11.10
2011,03,23,16,47,11.10
2011,03,23,16,48,11.10
2011,03,23,16,49,11.10
2011,03,23,16,50,11.00
2011,03,23,16,51,10.90
2011,03,23,16,52,11.00
2011,03,23,16,53,11.10
2011,03,23,16,54,11.10
2011,03,23,16,55,11.10
2011,03,23,16,56,11.10
2011,03,23,16,57,11.10
2011,03,23,16,58,11.10
2011,03,23,16,59,11.10
2011,03,23,17,00,11.10
2011,03,23,17,01,11.10
2011,03,23,17,02,11.10
2011,03,23,17,03,11.10
2011,03,23,17,04,11.10
2011,03,23,17,05,11.10
2011,03,23,17,06,11.00
2011,03,23,17,07,10.90
2011,03,23,17,08,10.90
2011,03,23,17,09,10.90
2011,03,23,17,10,10.90
2011,03,23,17,11,10.90
2011,03,23,17,12,10.90
2011,03,23,17,13,10.90
2011,03,23,17,14,10.90
2011,03,23,17,15,10.90
2011,03,23,17,16,10.90
2011,03,23,17,17,10.90
2011,03,23,17,18,10.90
2011,03,23,17,19,10.90
2011,03,23,17,20,10.90
2011,03,23,17,21,10.90
2011,03,23,17,22,10.90
2011,03,23,17,23,10.90
2011,03,23,17,24,10.90
2011,03,23,17,25,10.90
2011,03,23,17,26,10.80
2011,03,23,17,27,10.80
2011,03,23,17,28,10.80
2011,03,23,17,29,10.80
2011,03,23,17,30,10.80
2011,03,23,17,31,10.80
2011,03,23,17,32,10.80
2011,03,23,17,33,10.80
2011,03,23,17,34,10.80
2011,03,23,17,35,10.80
2011,03,23,17,36,10.80
2011,03,23,17,37,10.80
2011,03,23,17,38,10.80
2011,03,23,17,39,10.80
2011,03,23,17,40,10.80
2011,03,23,17,41,10.80
2011,03,23,17,42,10.70
2011,03,23,17,43,10.70
2011,03,23,17,44,10.70
2011,03,23,17,45,10.70
2011,03,23,17,46,10.70
2011,03,23,17,47,10.70
2011,03,23,17,48,10.70
2011,03,23,17,49,10.70
2011,03,23,17,50,10.70
2011,03,23,17,51,10.70
2011,03,23,17,52,10.70
2011,03,23,17,53,10.70
2011,03,23,17,54,10.70
2011,03,23,17,55,10.70
2011,03,23,17,56,10.70
2011,03,23,17,57,10.70
